This is the latest recevied weather packets stored in our database for station/object IN3XSV-13. If no packets are shown the sender has not sent any weather packets the latest 10 day(s).
| Time | Temp. | Humidity | Pressure | Rain* | Wind** | Luminosity | Snow |
|---|---|---|---|---|---|---|---|
| 1787761068 | 27.22° C | 60% | 1010.7 hPa | 0 mm | - | - | - |
| 1787760768 | 26.67° C | 60% | 1010.7 hPa | 0 mm | - | - | - |
| 1787760468 | 27.22° C | 59% | 1010.9 hPa | 0 mm | - | - | - |
| 1787760168 | 27.22° C | 58% | 1010.8 hPa | 0 mm | - | - | - |
| 1787759868 | 27.78° C | 58% | 1010.8 hPa | 0 mm | - | - | - |
| 1787759568 | 27.78° C | 59% | 1010.8 hPa | 0 mm | - | - | - |
| 1787759268 | 27.78° C | 58% | 1010.7 hPa | 0 mm | - | - | - |
| 1787758969 | 27.78° C | 57% | 1010.6 hPa | 0 mm | - | - | - |
| 1787758669 | 28.33° C | 56% | 1010.7 hPa | 0 mm | - | - | - |
| 1787758369 | 28.33° C | 56% | 1010.7 hPa | 0 mm | - | - | - |
| 1787758069 | 28.33° C | 56% | 1010.5 hPa | 0 mm | - | - | - |
| 1787757769 | 28.89° C | 55% | 1010.6 hPa | 0 mm | - | - | - |
| 1787757469 | 28.89° C | 55% | 1010.7 hPa | 0 mm | - | - | - |
| 1787757169 | 28.89° C | 54% | 1010.5 hPa | 0 mm | - | - | - |
| 1787756869 | 28.89° C | 54% | 1010.4 hPa | 0 mm | - | - | - |
| 1787756569 | 30° C | 52% | 1010.6 hPa | 0 mm | - | - | - |
| 1787756269 | 30.56° C | 51% | 1010.5 hPa | 0 mm | - | - | - |
| 1787755969 | 30.56° C | 51% | 1010.4 hPa | 0 mm | - | - | - |
| 1787755669 | 31.11° C | 52% | 1010.4 hPa | 0 mm | - | - | - |
| 1787755369 | 31.11° C | 52% | 1010.3 hPa | 0 mm | - | - | - |
| 1787755069 | 30.56° C | 52% | 1010.5 hPa | 0 mm | - | - | - |
| 1787754769 | 30° C | 53% | 1010.5 hPa | 0 mm | - | - | - |
| 1787754469 | 30° C | 51% | 1010.4 hPa | 0 mm | - | - | - |
| 1787754169 | 30.56° C | 50% | 1010.4 hPa | 0 mm | - | - | - |
| 1787753869 | 30° C | 50% | 1010.2 hPa | 0 mm | - | - | - |
* Rain latest hour (hover to see other rain measurements)
** Current wind speed in m/s (hover to see current wind gust speed)